Theta_e
318 316 316 317 317 317 316 317 316 317 318 318 318 318 319 319 319 320 320 320 321 322 322 323 325 325 325 326 326 324 321 301 300 304 303 303 324 336 337 336 333 334 323 299 299 303 300 295 299 296 298 296 296 299 298 296 293 291 290 286 288 284 287 289 291 290 290 291 293 292 292 293 293 295 298 296 296 293 295 297 296 297 298 298 297 299 301 302
317 315 316 316 316 316 316 316 316 316 317 317 318 318 318 318 319 319 320 320 320 321 322 323 324 325 325 325 325 323 309 303 297 297 302 321 334 336 338 337 333 333 320 301 298 295 298 298 298 294 296 296 297 298 297 298 293 288 284 285 289 285 290 292 290 291 293 296 292 292 289 293 294 295 297 295 295 293 297 297 295 298 297 299 302 302 308 314
316 316 316 315 315 315 315 315 316 316 316 316 317 317 317 317 318 319 319 320 320 321 322 324 324 324 325 325 323 320 306 299 298 296 303 324 335 337 338 335 328 323 305 303 301 298 301 300 297 294 292 293 292 298 293 296 296 289 289 290 282 287 290 289 289 292 291 291 292 292 291 292 294 294 295 297 292 292 295 294 295 296 298 298 301 303 311 315
315 315 315 315 315 315 315 315 315 315 316 316 317 317 317 317 318 318 318 319 320 321 322 323 324 324 324 324 323 313 299 297 295 296 301 326 333 336 337 333 325 310 300 299 296 296 294 294 292 296 294 291 291 289 293 293 295 291 288 285 290 287 293 293 288 289 289 291 291 291 290 293 294 292 295 292 294 293 294 293 298 298 297 298 300 302 310 313
315 315 314 315 315 315 314 314 314 315 316 317 317 317 317 317 318 317 318 319 320 321 322 323 324 324 324 323 319 308 295 291 293 297 304 329 331 333 333 331 319 299 299 297 299 295 294 295 292 291 295 295 289 290 290 291 290 288 291 289 289 286 293 293 288 288 289 288 290 289 294 295 293 294 291 293 294 295 295 296 295 297 297 298 301 301 308 312
315 314 314 314 314 314 314 315 315 314 316 317 317 317 317 318 318 318 318 319 320 321 321 323 324 323 324 322 306 298 295 286 296 303 324 327 330 330 328 330 319 299 298 296 297 294 300 296 295 293 289 289 290 290 293 290 292 293 290 287 287 287 293 290 289 288 288 289 290 291 294 293 293 294 289 292 296 295 292 293 292 293 295 298 302 302 307 310
314 314 314 313 314 314 314 314 313 314 316 318 317 317 318 318 318 318 318 318 319 320 321 323 323 324 323 319 299 295 292 297 300 306 323 328 327 326 322 318 311 298 298 300 296 300 291 293 291 289 288 290 289 291 292 291 289 288 292 289 292 287 293 290 291 288 287 290 290 291 292 294 291 295 291 290 294 294 292 291 293 294 292 299 301 302 307 310
313 313 313 313 313 313 313 314 314 315 316 317 317 317 318 318 318 318 319 319 319 320 321 322 323 323 321 300 303 289 292 298 302 306 319 322 308 306 321 302 300 300 300 297 299 295 293 294 293 289 288 291 292 292 291 295 291 291 292 290 291 288 290 288 287 286 287 289 289 290 293 294 291 293 290 293 295 294 295 295 296 295 297 299 300 301 304 307
313 313 314 313 313 313 313 313 314 315 315 316 317 317 317 318 318 318 318 318 319 320 321 322 322 322 318 295 289 291 292 298 305 308 306 300 299 301 302 307 299 301 296 296 295 297 299 294 292 292 293 290 293 294 291 294 293 292 293 289 290 292 290 289 288 287 288 291 290 293 292 291 290 290 292 297 295 290 294 296 296 297 298 298 300 301 302 304
314 315 314 314 313 313 313 313 314 315 316 316 316 317 317 318 318 318 318 319 319 319 321 322 321 319 299 295 289 288 294 304 306 309 301 300 299 300 302 300 297 299 302 298 296 297 301 292 297 294 293 292 291 292 290 292 292 291 290 290 292 292 291 291 293 291 289 292 291 293 291 292 291 292 294 292 293 294 296 296 295 297 298 298 299 299 300 302
316 315 314 314 314 314 313 313 314 314 315 316 317 318 318 318 318 318 318 318 319 320 321 321 320 310 297 288 289 287 301 308 309 305 302 299 300 301 302 301 299 298 299 297 297 297 296 294 294 294 296 294 293 292 291 293 291 290 290 290 291 288 291 290 291 292 292 295 288 294 292 290 292 292 295 295 293 294 295 295 295 295 297 298 298 298 299 299
316 316 316 316 315 314 313 314 314 314 315 316 318 319 317 317 318 318 318 319 319 320 321 320 318 299 290 287 286 292 298 309 306 303 302 301 302 301 301 300 301 302 300 299 300 299 296 295 295 295 294 296 292 292 293 291 292 291 291 295 291 287 294 290 293 290 291 295 290 291 293 291 290 291 297 291 293 294 294 294 294 295 295 295 296 297 298 300
315 315 315 316 316 316 314 314 315 314 316 317 318 318 317 317 318 318 318 318 319 320 321 321 313 299 297 292 292 296 298 299 305 303 303 302 300 298 298 298 299 298 298 299 300 301 295 295 295 298 294 292 291 293 293 293 290 292 290 290 291 287 288 291 290 289 292 294 287 292 289 289 291 295 294 292 293 293 294 294 294 294 294 294 294 296 298 298
317 315 315 315 316 315 314 314 314 315 315 316 318 318 318 318 318 318 319 319 320 320 321 319 303 292 291 288 297 302 304 301 303 304 302 302 302 304 300 300 298 297 299 300 297 296 296 297 297 296 294 293 293 296 293 288 289 293 290 286 285 286 286 289 289 289 293 291 289 292 289 289 289 290 289 289 291 294 295 295 294 293 293 294 294 295 296 298
317 317 316 316 316 315 314 313 314 315 315 316 317 318 318 318 319 319 320 320 321 321 320 315 299 297 289 292 298 305 317 305 306 304 301 302 301 302 302 300 300 298 296 298 297 296 295 297 295 292 294 292 295 293 287 285 285 284 288 283 280 286 283 286 290 289 293 291 289 293 289 292 293 295 291 288 291 291 294 294 293 293 293 293 293 294 295 297
317 317 317 316 315 314 314 313 313 314 315 315 316 317 318 319 319 320 320 320 320 316 307 306 297 289 287 290 303 314 304 302 305 304 301 301 301 302 300 298 299 298 297 298 297 297 298 299 295 292 292 294 290 286 284 287 285 281 286 283 286 284 282 288 290 286 288 290 292 292 291 287 291 291 289 290 291 290 292 292 292 292 292 293 294 294 295 296
318 318 317 317 316 315 314 314 313 314 314 315 316 317 319 319 320 319 319 317 309 306 306 300 295 295 291 295 302 297 297 302 302 303 302 300 301 300 298 297 297 299 297 299 298 300 297 295 292 293 289 289 285 285 284 280 281 283 283 285 280 285 284 286 287 290 288 291 290 291 289 291 292 291 288 290 291 290 291 293 293 293 293 293 294 294 295 295
318 318 317 316 316 316 315 315 314 314 315 315 316 317 314 319 319 315 314 306 303 302 300 299 292 292 292 293 294 296 297 301 302 301 299 299 297 297 296 296 294 294 293 298 298 296 295 294 291 291 288 283 289 285 282 280 282 282 286 285 286 283 283 285 286 290 289 288 289 287 288 290 293 294 294 291 290 290 292 293 294 293 293 293 293 293 294 295
319 318 317 317 316 316 316 315 315 315 314 316 317 317 317 318 302 302 302 297 294 293 290 294 291 286 284 290 294 299 302 303 301 302 302 301 299 297 298 296 296 298 294 292 294 296 291 292 291 288 289 286 289 289 286 284 282 283 284 282 281 286 284 285 287 286 289 288 287 287 289 291 292 293 295 292 289 291 292 292 292 292 293 292 293 293 294 295
319 318 318 317 317 316 316 316 315 315 315 311 309 303 299 297 288 299 294 300 290 289 290 289 292 290 296 294 299 301 302 301 302 299 302 301 301 298 297 294 295 292 292 291 292 291 292 287 287 286 288 290 289 290 289 283 286 284 282 282 282 284 285 285 285 286 286 288 288 290 289 289 291 292 293 294 289 289 290 291 292 293 294 293 293 293 294 294
319 319 318 318 317 317 317 317 316 315 316 309 307 295 290 290 286 286 289 296 293 293 295 295 293 294 297 298 296 299 300 298 299 300 301 301 299 300 295 295 290 291 286 287 291 291 288 287 287 290 289 287 288 286 284 286 285 286 283 286 285 284 287 287 290 287 286 289 285 284 286 287 289 291 293 293 289 291 291 292 292 293 294 294 294 294 294 295
319 319 318 318 318 317 317 317 317 315 317 312 306 295 300 292 293 293 294 293 294 296 297 296 295 298 297 298 299 299 296 295 298 300 302 301 300 297 292 290 287 291 288 288 290 289 287 287 290 290 286 286 285 286 286 288 286 284 287 284 286 285 285 287 286 286 286 288 287 286 287 290 290 291 293 293 293 294 293 294 296 296 296 295 294 294 295 294
319 319 318 318 318 318 317 317 316 317 309 309 304 300 300 305 303 299 294 290 291 294 295 295 295 295 296 297 298 299 298 292 293 297 300 300 295 295 292 291 288 286 288 290 290 285 286 284 291 287 287 287 284 284 286 286 285 284 283 285 286 283 286 284 284 286 288 288 285 283 286 289 289 291 292 294 294 293 293 293 294 295 295 296 296 296 295 294
318 318 318 318 318 318 318 317 317 313 309 309 305 301 303 304 300 300 299 291 287 291 294 294 295 292 295 296 299 299 295 294 293 296 300 298 296 293 294 288 287 287 289 289 289 289 287 288 288 288 288 290 286 284 286 286 286 284 286 284 284 285 284 286 285 285 285 286 284 286 287 289 290 291 292 292 287 290 294 294 293 293 294 295 296 295 295 295
318 318 318 318 318 319 317 317 310 306 308 309 306 307 303 304 303 301 297 286 284 287 296 294 296 294 296 301 301 300 295 293 292 295 301 299 292 293 292 289 288 288 287 287 288 287 288 288 287 288 287 285 284 285 285 287 285 281 283 288 288 286 286 284 284 287 285 282 283 284 283 281 281 286 289 291 289 291 291 291 294 295 295 294 294 294 295 295
318 318 318 318 318 318 317 308 306 307 306 303 303 304 308 303 303 301 288 280 280 282 291 289 298 295 302 296 300 296 296 293 294 296 300 298 301 294 292 291 289 289 286 287 288 286 288 289 289 288 287 286 286 284 283 287 284 284 284 285 289 287 286 286 285 287 280 280 286 284 284 281 284 289 288 287 286 290 292 291 293 294 294 294 294 295 294 294
319 318 318 318 319 317 307 300 306 307 300 301 305 305 304 306 304 303 288 278 278 288 287 291 292 292 301 294 299 291 284 284 297 298 299 300 299 298 293 288 288 288 288 287 285 287 287 288 286 286 286 285 285 285 286 288 286 282 284 283 285 286 286 285 286 286 283 282 284 284 283 283 285 287 290 289 290 292 292 294 296 297 296 295 295 294 294 293
319 318 318 319 318 315 306 308 307 303 301 304 304 306 306 306 302 292 284 272 273 292 288 288 293 297 298 298 297 292 287 293 292 296 296 297 298 294 291 287 291 290 288 288 284 286 288 286 286 286 286 285 286 285 285 289 286 283 285 283 284 286 284 283 285 282 283 282 283 283 285 284 282 281 285 287 289 289 292 294 295 296 296 295 294 294 294 293
319 318 318 318 318 316 312 308 307 304 307 303 304 307 308 304 293 288 278 272 284 285 300 292 303 298 294 297 292 287 291 290 288 292 295 297 297 294 290 287 288 288 289 290 288 286 285 288 288 290 288 287 285 284 286 290 288 286 284 284 283 283 282 282 281 284 281 279 282 282 285 279 285 283 287 284 287 288 291 294 295 296 296 294 293 292 291 290
319 318 318 318 317 313 311 311 307 308 306 307 307 308 308 299 291 285 277 270 291 283 291 293 293 289 292 292 289 290 290 289 290 294 295 294 295 293 293 290 289 288 289 289 286 285 287 289 289 288 287 286 284 284 284 287 287 286 285 287 285 281 281 280 280 279 279 276 283 283 285 284 282 284 287 287 289 290 293 293 294 295 294 293 290 290 289 289
318 319 318 318 311 311 311 305 309 308 309 309 309 308 302 293 284 279 273 281 289 290 289 290 288 292 291 289 287 286 288 287 293 294 292 294 293 291 291 291 290 284 284 283 287 285 288 288 289 288 287 286 288 287 285 284 285 287 286 283 286 285 279 279 272 276 275 277 280 281 282 284 280 280 284 288 287 286 291 292 294 294 294 293 289 288 288 288
318 318 318 316 315 314 307 304 310 310 310 310 309 304 295 283 287 277 277 289 283 286 288 286 288 289 290 290 288 288 289 288 292 293 292 290 290 291 291 288 288 282 280 285 283 283 285 286 285 289 289 289 286 287 286 284 288 286 285 287 280 275 272 273 273 276 273 278 279 279 282 283 283 287 285 286 289 291 289 292 294 294 294 293 290 289 287 287
317 317 317 317 315 311 311 311 313 311 311 310 307 300 289 282 277 284 282 285 281 288 287 287 287 289 290 288 286 287 288 288 289 291 288 289 290 291 290 288 290 286 281 283 283 282 282 282 285 288 288 289 290 287 284 283 287 285 287 283 278 272 272 268 265 263 269 276 279 281 282 281 283 286 292 294 295 295 292 291 293 293 294 295 292 289 287 287
317 317 315 315 315 314 313 312 313 312 310 308 302 292 287 281 281 293 286 287 287 286 286 285 287 288 290 288 287 290 286 286 290 290 291 288 288 287 290 291 287 286 281 281 283 282 276 278 283 287 287 289 291 292 291 286 286 288 284 288 284 277 270 267 266 274 278 276 277 278 277 277 278 285 289 291 292 288 290 292 292 291 291 291 289 286 286 286
316 315 316 315 314 315 312 313 313 313 310 305 296 289 282 283 288 286 286 288 287 285 285 289 288 285 286 285 285 290 288 284 288 289 287 288 286 286 287 290 290 287 282 284 282 278 283 282 280 287 286 290 291 289 287 286 286 285 284 284 279 283 278 278 272 269 269 271 273 274 280 281 285 286 287 287 286 287 287 289 290 292 293 290 289 289 288 288
311 310 314 311 312 313 312 313 314 312 308 300 291 285 284 288 286 291 289 293 289 288 286 286 283 283 282 284 283 288 290 286 287 287 286 287 286 288 289 288 291 291 287 285 283 278 278 278 282 286 286 288 288 287 289 287 284 283 286 283 285 284 282 273 272 271 272 270 278 273 280 283 285 289 291 294 291 290 288 288 288 292 294 289 292 293 289 288
308 311 306 310 311 313 313 313 313 311 306 298 289 284 289 290 294 291 296 292 291 291 287 286 284 285 283 283 284 285 287 289 287 287 284 286 286 287 285 289 290 292 293 290 283 284 281 278 283 284 286 286 285 286 285 285 286 285 281 285 285 284 282 281 276 271 271 273 276 275 280 283 280 284 285 287 287 291 290 291 292 291 288 289 293 292 290 289
309 308 307 308 312 313 314 314 312 309 303 295 287 290 292 289 295 293 291 290 290 293 289 288 285 288 283 284 283 284 286 286 286 287 285 287 285 290 289 286 289 293 294 288 288 284 286 281 282 282 283 286 286 288 289 287 286 284 282 286 287 281 279 280 275 274 270 270 274 276 277 279 283 287 286 286 286 289 290 292 292 292 292 291 292 291 289 288
309 306 300 307 314 314 313 314 311 305 298 289 287 287 292 292 296 294 293 294 293 292 290 290 288 287 288 284 285 285 288 284 286 286 283 284 284 288 291 292 288 292 294 292 288 284 287 282 280 284 284 285 286 287 283 284 288 286 288 287 286 283 277 277 281 274 277 270 267 277 274 284 286 286 287 291 289 289 291 289 290 292 293 291 291 290 289 289
304 301 298 309 314 314 313 311 305 301 294 286 288 288 294 292 295 296 294 294 291 292 290 290 289 286 287 286 287 285 287 286 286 286 286 285 287 288 289 293 289 287 291 294 291 290 285 284 278 282 284 285 284 286 285 286 285 284 284 283 285 281 283 281 279 277 278 266 267 270 279 285 288 287 288 291 292 292 291 291 292 292 291 289 289 289 289 288
306 300 300 311 313 314 312 306 298 294 290 291 293 291 293 292 295 295 297 296 296 297 292 290 291 290 289 286 285 287 287 287 285 285 286 285 287 284 290 291 289 288 289 290 291 288 282 281 280 281 281 283 283 284 286 289 292 289 288 286 288 284 280 277 279 280 271 276 278 271 280 287 287 286 291 290 290 292 291 291 292 291 289 288 288 288 288 289
300 292 297 312 313 312 305 294 295 298 293 287 287 292 291 298 292 294 296 298 298 296 297 294 292 291 288 289 290 287 287 286 286 286 285 287 290 289 288 292 292 293 292 287 290 293 290 282 282 278 282 285 284 286 282 283 285 285 286 285 289 287 286 280 276 278 274 279 277 276 272 285 289 287 287 286 285 286 287 289 291 290 288 288 288 288 288 288
297 295 305 310 313 310 301 293 296 294 290 291 297 295 296 294 294 294 295 297 295 297 295 295 295 293 292 290 288 289 290 287 288 287 287 288 289 292 288 292 292 293 294 288 289 286 293 287 284 284 282 281 283 283 283 281 286 286 284 280 285 287 287 286 285 282 282 275 276 274 273 286 287 285 282 284 283 283 283 284 290 289 288 287 286 287 287 287
299 299 300 308 312 309 298 288 288 289 288 292 293 293 297 295 294 294 294 296 295 295 294 294 295 297 294 292 291 290 293 287 291 290 288 289 286 288 290 290 293 291 293 290 290 293 288 286 287 282 278 280 281 284 285 285 285 282 282 285 288 290 288 280 279 278 279 281 284 281 278 285 287 282 283 284 284 285 286 286 284 287 289 288 287 286 286 286
298 299 299 302 307 305 294 296 293 289 288 288 288 287 291 293 296 296 296 295 298 296 295 294 297 295 295 294 294 294 294 293 289 292 292 289 289 289 287 291 294 292 292 292 296 297 291 288 286 282 279 278 277 278 280 280 284 284 278 285 286 287 286 284 284 279 281 286 283 283 283 290 286 285 289 287 285 287 287 285 284 285 289 289 287 286 285 285
292 286 295 296 300 299 299 301 297 293 289 288 286 287 291 289 292 295 297 296 299 298 298 295 295 298 295 293 292 291 292 295 293 288 290 288 288 288 288 290 293 294 294 296 295 296 287 289 289 288 286 284 286 287 285 287 283 283 285 286 286 288 289 289 287 283 282 285 282 285 288 289 289 287 287 285 284 288 290 289 288 289 288 287 286 286 285 285
296 289 291 287 296 296 294 298 295 295 290 293 285 289 286 288 291 293 298 292 297 297 296 297 295 293 293 294 293 292 293 292 293 289 288 289 288 288 289 290 293 294 295 294 295 290 285 287 289 289 289 290 290 287 284 290 286 287 287 285 287 286 287 287 286 284 289 283 282 288 289 287 290 291 287 289 288 286 286 286 288 289 288 288 289 286 286 285
287 290 295 296 290 287 288 290 296 294 294 293 288 291 288 288 289 287 294 296 297 297 293 293 295 296 296 294 294 290 292 291 292 289 292 289 290 289 290 291 291 293 294 293 293 292 288 287 290 289 288 290 291 287 286 288 288 288 288 287 286 287 286 285 287 290 289 285 284 290 289 287 290 293 291 291 291 291 292 291 292 292 289 287 286 286 286 285
293 291 290 294 289 290 291 291 295 295 293 292 290 290 287 288 287 290 291 291 293 292 296 288 291 295 295 296 294 291 292 287 287 292 290 290 289 287 287 290 292 290 290 287 291 288 289 287 288 288 287 289 289 288 285 287 285 285 286 287 288 287 287 287 288 290 289 288 290 291 289 289 293 294 293 292 291 292 293 292 291 290 292 291 289 289 289 289
288 289 286 292 291 288 288 289 290 290 289 293 288 289 289 288 287 290 292 292 288 291 296 292 292 294 295 295 295 292 293 294 294 289 292 292 288 288 289 290 286 284 286 286 289 288 290 288 292 285 286 286 289 288 285 285 285 284 284 286 287 288 288 288 289 289 289 289 290 290 289 288 293 290 292 292 291 292 291 291 293 294 293 293 293 291 290 289
294 293 294 287 286 285 288 287 287 288 285 288 288 290 290 290 289 291 291 295 293 290 293 292 294 294 294 294 294 294 298 297 296 296 294 293 290 293 292 289 290 285 287 286 287 287 288 286 286 287 285 286 288 288 288 284 284 285 286 286 286 286 284 286 286 289 288 287 288 288 287 288 292 293 291 291 292 293 294 295 294 294 294 294 292 291 291 291
296 294 294 292 285 291 286 287 288 287 285 288 289 288 289 289 292 292 288 293 295 296 296 295 295 294 292 293 292 295 299 299 298 297 297 298 298 295 296 293 291 289 287 287 287 287 287 287 286 286 285 285 289 289 287 284 284 283 285 288 289 288 288 288 290 290 290 291 287 286 287 294 292 289 291 290 291 292 293 294 295 295 295 293 292 292 292 291
Wind_Speed
6 4 2 3 3 2 2 4 4 5 5 5 5 5 6 5 5 5 5 5 5 6 7 8 8 9 10 10 11 11 9 3 2 1 4 2 3 7 7 7 7 7 2 2 4 1 1 5 5 9 3 5 3 2 2 3 3 1 2 6 1 3 4 6 8 10 2 4 4 4 4 5 2 1 1 1 4 3 1 1 4 3 7 5 4 2 4 4
6 4 4 3 3 2 3 3 3 3 4 4 5 5 5 5 5 5 6 5 6 6 6 7 8 8 9 10 10 9 4 2 3 5 1 2 6 5 6 6 6 7 4 5 5 3 4 2 1 6 4 2 3 0 0 1 2 5 2 3 6 5 5 7 5 6 2 1 4 3 1 2 3 6 3 2 1 2 1 2 1 4 7 4 4 3 2 5
6 5 4 3 2 2 2 2 3 4 4 4 3 4 4 4 5 5 6 6 6 7 7 8 8 9 10 10 10 6 1 1 2 2 1 5 7 6 5 5 4 7 2 2 0 5 2 3 1 3 4 3 8 0 4 2 2 1 3 1 2 9 2 6 5 7 2 4 5 4 2 2 1 2 1 2 1 1 5 4 2 4 8 8 4 0 5 6
6 5 4 3 2 2 3 3 3 3 3 2 3 3 3 4 5 6 6 6 7 7 8 8 9 9 10 10 8 3 1 3 1 1 1 7 6 6 5 3 3 2 5 9 4 4 5 8 7 4 2 7 3 2 3 4 1 1 2 2 2 5 1 2 7 4 5 1 5 4 1 1 1 3 2 4 2 4 7 9 8 10 12 9 8 5 6 8
7 5 5 4 4 3 2 1 2 3 3 3 4 4 4 5 5 5 7 7 8 8 8 9 10 10 10 9 7 1 3 3 2 1 3 7 5 6 5 2 4 4 4 7 5 6 9 4 2 5 3 0 4 2 1 2 2 4 1 1 1 3 1 1 6 2 4 1 7 3 6 4 1 1 2 8 6 8 8 6 11 9 6 8 11 8 7 9
7 6 4 4 4 3 2 2 3 2 3 4 5 5 5 6 6 7 7 8 8 9 9 10 10 11 10 7 1 2 3 1 0 1 5 7 5 6 4 2 4 5 5 7 2 3 2 5 4 2 2 4 3 4 1 0 2 2 1 1 3 2 1 1 2 3 4 3 5 5 3 3 2 1 2 5 10 5 4 1 5 6 5 5 3 8 8 11
6 5 4 4 4 3 2 3 2 2 3 5 5 5 6 6 7 7 8 8 9 10 10 10 11 11 11 2 1 8 3 0 1 3 6 8 5 3 3 6 6 4 4 2 4 1 3 3 5 1 3 3 1 2 0 2 2 5 3 0 1 3 1 1 0 1 1 8 4 2 1 1 3 4 1 3 10 7 2 4 5 6 5 4 8 10 12 13
6 5 5 4 4 2 1 2 2 1 2 4 5 6 6 7 8 9 9 9 9 10 10 11 11 11 8 1 1 3 2 0 2 2 7 6 5 6 2 3 2 5 10 4 1 3 3 3 4 3 7 4 2 3 2 1 6 2 1 2 1 0 1 2 1 2 1 1 1 2 3 0 4 1 2 9 11 8 3 1 0 2 4 5 7 10 9 9
7 6 5 5 4 3 1 1 0 1 1 3 5 6 6 7 8 9 9 9 9 9 10 11 11 11 2 3 4 3 0 1 3 4 5 5 5 7 4 0 6 8 4 3 3 4 3 1 2 4 2 1 1 3 4 2 1 0 1 2 0 0 4 1 3 2 1 1 1 3 1 1 4 3 6 14 9 3 2 2 3 5 6 8 10 10 10 10
11 10 6 5 4 2 2 2 1 1 2 3 4 5 6 7 8 9 9 9 8 8 10 11 12 10 1 2 3 2 1 1 3 2 3 0 3 7 11 2 2 4 3 3 4 5 1 5 2 5 11 4 2 2 1 2 1 2 3 1 3 0 1 2 3 0 0 1 1 2 0 0 2 2 9 2 2 4 4 1 0 4 7 8 7 7 7 9
12 11 11 11 10 7 4 2 2 1 1 3 4 5 5 7 8 9 9 8 8 8 9 10 12 6 0 3 5 3 1 2 0 3 2 4 9 9 2 4 1 4 8 3 5 1 2 6 3 4 2 2 3 1 2 0 3 3 2 2 3 9 2 2 1 1 0 0 3 2 0 1 2 2 12 1 1 1 4 2 2 4 6 6 7 7 6 6
12 10 10 10 9 7 3 3 2 2 1 2 4 5 5 6 8 9 8 8 6 8 8 8 8 1 3 7 6 1 1 3 2 1 2 4 5 1 3 3 0 4 3 3 2 0 2 6 3 1 2 1 2 1 2 1 2 0 1 1 4 8 1 5 0 2 1 1 3 2 0 2 1 8 10 1 0 0 2 4 4 5 6 6 6 6 6 8
10 10 9 9 11 9 4 3 2 2 1 3 4 4 5 6 8 8 8 7 7 7 7 7 5 1 1 1 2 5 2 1 1 3 7 7 6 3 4 4 5 4 5 6 1 0 4 5 5 10 0 4 3 1 2 4 2 0 7 1 3 6 3 2 1 2 1 1 1 1 5 6 11 17 4 1 3 1 2 5 7 6 6 7 7 6 7 7
8 10 9 8 10 8 5 4 4 3 3 3 4 5 6 7 8 7 6 7 8 7 7 5 2 1 2 0 2 3 1 1 2 5 2 1 5 2 3 4 5 5 3 10 3 3 3 1 9 8 2 4 2 0 3 4 5 1 1 5 1 2 2 2 1 0 3 0 1 1 4 6 7 10 8 5 4 4 6 8 7 6 7 7 7 7 8 9
10 9 10 9 5 5 6 5 5 4 3 4 5 6 7 8 7 7 7 7 7 6 6 4 2 0 2 1 2 6 3 2 2 1 2 1 6 3 2 4 9 7 4 6 4 1 3 3 5 6 1 1 1 2 2 3 5 3 1 2 3 2 4 9 1 3 3 1 1 2 4 10 10 12 4 5 2 2 9 7 7 7 8 8 7 8 9 10
12 11 10 9 9 7 7 5 5 5 4 5 6 8 8 8 7 8 8 7 5 4 0 1 3 5 5 0 1 2 2 1 2 2 2 1 1 3 1 5 1 4 3 4 3 3 6 9 9 1 1 1 6 7 4 2 2 6 1 2 1 1 4 7 1 2 3 1 1 4 8 3 6 3 3 1 4 3 5 10 8 9 10 9 9 9 9 9
13 12 11 9 9 8 7 7 5 5 5 5 7 8 8 6 7 9 6 2 3 1 0 1 0 0 0 1 0 1 2 0 2 1 2 3 2 7 5 4 3 3 4 2 6 2 6 7 2 1 5 5 3 5 2 3 4 2 2 2 3 1 1 2 4 0 1 0 3 2 2 10 5 7 5 1 5 4 6 11 11 10 9 9 8 9 10 11
13 12 11 10 9 9 6 6 6 4 4 4 6 6 5 8 7 4 0 3 1 2 2 2 2 2 3 2 1 2 0 2 2 2 3 2 5 5 4 3 0 6 4 1 5 3 4 1 3 2 2 3 1 3 3 3 5 1 1 0 2 1 3 5 1 0 1 2 3 1 7 15 14 12 12 6 6 6 10 11 10 9 9 9 9 10 12 12
13 12 11 10 10 9 7 5 5 4 4 5 7 6 5 3 1 1 4 2 1 1 1 3 3 4 3 3 2 3 1 1 0 2 1 1 2 4 5 4 5 5 1 2 2 1 4 4 5 4 3 2 6 7 9 5 5 2 7 5 3 2 3 4 6 3 4 2 4 7 10 11 13 13 14 6 6 8 11 8 9 11 10 10 10 11 11 13
13 13 12 11 10 9 9 6 4 4 1 4 3 2 2 1 3 1 3 1 2 2 1 2 2 1 1 3 2 2 3 1 4 3 1 2 2 4 6 3 4 7 4 3 1 2 1 4 5 5 9 10 7 9 4 4 6 6 5 4 2 2 6 4 4 4 0 0 9 12 10 10 12 12 13 11 2 6 9 11 12 12 12 11 11 13 15 14
13 13 13 11 11 10 9 8 4 3 5 2 1 1 1 5 3 1 2 5 1 4 2 0 1 1 1 1 1 1 3 1 2 0 1 1 1 7 1 2 3 1 2 1 4 1 3 2 6 12 6 5 7 6 8 6 3 3 4 2 2 2 8 4 1 2 2 3 4 1 2 10 13 13 15 10 3 13 13 13 14 16 14 11 12 15 16 15
14 13 12 12 11 11 10 8 6 2 4 1 1 2 1 3 0 1 3 1 1 5 2 1 1 0 2 2 2 3 4 3 2 0 1 1 1 7 2 4 4 8 0 2 2 2 2 7 11 6 6 6 5 6 4 5 3 3 2 2 0 7 5 10 2 2 2 2 10 7 10 13 10 12 15 14 15 11 10 13 17 15 14 11 12 15 15 7
14 14 14 13 12 11 10 8 6 6 1 0 2 3 4 3 1 1 2 3 3 0 3 2 2 4 2 3 1 2 1 2 6 3 4 1 2 2 6 4 4 3 1 2 8 3 1 6 14 5 6 8 4 3 5 4 3 4 3 3 7 3 1 6 1 3 1 3 3 3 10 12 8 12 17 19 13 9 9 13 15 13 14 16 18 14 11 12
14 14 14 14 13 12 11 9 6 4 2 1 3 5 1 1 2 1 0 1 2 3 3 4 4 3 5 4 4 6 4 3 4 6 3 4 8 2 5 4 5 4 8 8 9 11 9 2 2 6 6 6 5 3 6 5 4 2 5 4 2 3 5 6 5 3 1 1 2 5 9 11 9 12 10 6 2 6 16 11 12 15 14 17 12 8 12 13
15 14 14 14 13 13 11 9 3 3 3 1 3 3 4 2 2 1 1 2 1 3 1 2 3 2 4 2 2 5 2 1 5 2 4 7 5 4 3 1 5 5 5 4 2 2 9 6 4 5 2 4 6 3 5 8 2 3 6 10 8 6 5 3 3 5 8 5 2 3 7 5 5 5 11 9 6 7 6 5 14 16 14 11 13 18 10 9
16 15 15 15 14 13 13 5 3 4 5 4 4 3 5 4 1 1 6 4 4 3 3 5 4 4 5 1 3 4 4 3 2 4 5 4 3 4 2 1 1 8 5 5 6 4 6 0 4 6 5 3 3 3 4 6 5 1 4 7 9 4 1 1 1 2 3 3 1 2 1 11 1 3 5 5 4 12 9 7 14 12 12 9 11 12 9 10
17 17 17 16 16 16 7 4 2 7 3 6 4 3 3 4 1 0 1 3 5 5 7 2 2 2 1 3 6 4 4 7 0 2 3 2 4 1 5 5 2 3 3 3 3 6 2 1 4 5 6 4 4 2 5 10 6 3 1 3 4 4 5 3 3 5 5 2 5 1 2 6 13 6 7 5 8 11 10 15 17 14 12 11 10 10 9 8
18 18 18 18 19 17 3 5 8 5 4 1 1 4 4 5 3 1 4 1 5 3 2 2 1 2 2 3 3 6 2 2 4 3 1 2 1 2 2 8 9 10 4 5 9 2 6 5 5 5 3 4 8 6 5 9 7 3 1 4 5 5 4 4 4 3 0 4 10 1 0 1 8 4 3 2 7 7 13 15 16 14 12 7 7 8 7 6
18 18 19 19 20 15 5 6 7 7 1 0 3 5 6 5 2 6 5 3 2 2 3 4 4 2 2 2 1 2 1 4 1 1 2 2 4 3 2 6 4 5 1 6 9 1 2 4 8 7 7 9 4 1 5 12 5 1 6 7 7 7 6 4 4 4 2 2 11 5 5 3 17 3 3 4 1 7 11 13 16 15 11 7 7 5 5 4
18 18 20 20 15 7 3 3 5 1 4 3 5 6 6 3 2 2 3 7 1 2 1 1 1 5 4 11 4 3 2 2 2 1 3 3 1 4 2 3 5 4 3 2 1 4 0 3 3 4 6 3 6 3 1 1 2 9 4 8 5 8 4 3 6 2 2 3 9 6 12 7 10 3 8 7 8 9 10 8 10 11 9 7 5 6 5 4
18 20 20 22 11 8 6 4 6 3 5 6 6 7 5 5 3 4 6 6 3 1 2 1 2 4 10 12 6 2 4 1 1 5 3 0 1 4 2 5 3 5 2 3 5 2 0 2 1 1 4 3 4 5 4 3 4 5 2 3 4 2 6 3 4 4 1 9 2 2 7 5 11 4 7 7 5 5 8 9 10 11 11 7 5 4 4 4
19 20 21 16 8 9 12 8 8 6 6 7 6 7 5 3 4 6 6 3 2 5 7 4 0 4 8 0 4 9 8 2 1 4 9 7 8 9 10 11 7 4 4 9 8 3 4 5 1 1 3 8 4 9 3 4 1 3 6 7 4 4 5 3 2 2 5 9 1 3 1 5 16 12 6 7 10 10 9 11 12 10 10 7 4 5 3 3
8 19 24 16 12 9 5 4 11 9 8 6 6 0 5 6 9 9 7 4 3 3 3 4 5 7 8 6 5 3 1 7 1 2 4 0 7 8 2 3 5 5 9 3 3 2 6 1 1 3 2 4 7 8 3 1 4 5 8 7 5 0 1 4 5 2 7 8 4 0 1 9 2 8 15 21 21 16 10 12 12 11 13 11 3 2 3 4
1 11 15 14 12 10 7 10 10 11 10 9 6 5 7 9 12 10 13 7 2 2 5 2 4 2 8 7 5 9 4 2 8 4 3 6 6 8 8 7 4 2 6 2 9 9 3 6 7 8 5 6 10 11 13 7 11 10 3 9 9 8 7 3 5 6 8 5 3 5 1 8 4 4 1 10 10 6 7 10 9 9 11 9 5 5 5 6
5 2 6 7 8 6 8 10 11 13 11 10 6 8 15 15 11 15 12 11 0 2 3 0 6 5 4 3 2 4 3 2 4 5 3 8 9 7 9 12 8 5 2 5 4 3 11 7 5 5 2 9 13 2 6 7 3 2 2 5 4 9 6 6 4 3 1 4 5 2 7 4 6 3 6 5 7 8 6 9 7 12 12 4 6 7 7 8
5 1 2 2 6 6 9 9 10 10 10 10 12 8 15 15 15 12 8 6 2 5 4 5 4 4 3 2 3 7 3 2 4 3 2 5 1 7 6 4 13 16 10 11 4 4 3 5 1 3 4 5 4 1 1 4 8 4 6 7 6 2 7 5 2 1 1 2 12 3 10 7 9 10 13 16 9 9 5 5 5 12 13 4 9 9 5 7
3 3 2 4 4 8 11 11 12 10 8 14 14 15 15 8 2 3 2 10 8 14 6 9 5 8 7 6 4 5 5 5 3 6 6 2 5 7 4 8 4 9 14 8 2 3 8 6 1 2 4 1 0 0 3 5 4 9 4 8 2 2 4 5 6 2 3 4 9 3 8 9 3 16 1 1 5 13 8 10 10 10 4 5 9 9 6 7
3 3 2 5 8 12 11 13 14 11 9 10 12 17 0 8 1 2 1 5 4 9 9 11 4 9 4 8 7 7 3 5 5 3 4 6 7 6 8 3 7 14 16 2 6 3 3 5 1 2 0 3 1 1 2 2 3 5 3 4 7 4 2 2 3 4 2 5 7 6 3 10 9 14 2 3 6 9 10 13 12 11 9 10 10 9 7 6
1 2 4 6 10 14 14 14 14 14 12 11 9 10 5 10 2 1 4 2 3 8 12 9 7 4 6 9 4 4 11 9 10 9 6 4 6 6 16 11 7 14 14 9 5 1 1 5 3 1 2 1 0 4 9 3 1 1 2 3 1 2 2 5 7 3 5 5 1 10 2 16 7 9 7 10 11 11 10 9 9 11 10 8 8 7 7 7
2 2 5 3 13 13 14 15 10 10 12 16 12 11 2 9 5 5 3 3 1 7 6 7 5 4 5 6 10 9 8 5 12 11 7 4 10 2 8 10 5 4 10 13 7 2 3 1 7 1 3 2 4 6 10 13 11 2 2 4 1 0 2 5 1 3 4 4 3 2 12 16 9 9 9 12 14 13 11 10 10 10 9 7 6 7 7 7
1 4 1 3 12 12 13 10 11 13 10 3 7 9 5 5 5 8 10 3 1 2 2 3 7 11 7 6 4 2 7 9 6 7 7 5 9 6 8 9 7 6 5 5 8 3 2 2 7 3 0 7 7 3 5 12 16 16 16 14 16 11 5 4 7 2 2 3 6 3 16 19 3 3 8 9 10 9 10 10 8 6 5 7 7 8 8 7
3 7 3 7 11 17 14 15 6 7 5 9 11 8 6 3 3 3 7 3 1 2 2 0 2 5 5 8 8 7 6 6 7 7 5 11 10 10 2 11 11 16 15 10 16 13 7 3 4 6 9 10 3 0 1 1 1 0 3 6 7 6 5 5 4 6 0 4 3 3 4 25 4 10 6 5 4 4 6 6 9 6 5 5 7 7 7 7
6 6 2 3 14 18 12 10 8 9 6 3 6 2 0 1 5 2 6 6 7 5 1 2 5 4 4 5 4 6 12 6 12 11 6 10 9 12 4 13 10 15 11 1 5 2 5 3 2 5 1 3 2 1 2 1 1 1 1 1 7 10 11 11 8 6 8 2 2 2 1 20 1 1 0 3 4 4 2 6 7 5 6 7 7 7 8 6
2 2 0 1 11 13 12 12 9 10 7 2 3 4 4 2 4 5 8 11 10 5 7 4 1 4 2 3 3 9 11 6 8 13 9 5 5 2 11 10 17 10 12 10 11 9 5 5 8 2 2 1 2 2 1 2 1 2 3 6 11 11 7 2 6 2 3 10 15 10 13 22 2 0 2 1 2 4 5 7 5 6 7 6 6 6 5 5
1 1 1 2 6 12 12 8 8 8 10 9 6 11 5 4 5 9 5 4 5 4 3 7 8 2 3 1 4 4 10 14 4 11 8 2 6 1 4 12 14 10 5 2 4 13 6 6 8 8 12 12 10 11 13 7 10 5 3 5 5 8 11 5 8 5 8 13 12 8 11 20 2 1 1 2 2 4 7 6 4 8 9 6 4 5 5 4
3 5 4 2 4 6 9 4 4 8 9 9 6 6 8 7 2 4 6 6 6 4 5 1 1 4 4 2 2 3 6 10 10 2 9 6 3 1 4 9 13 11 6 6 8 12 4 5 13 15 16 17 16 7 1 10 5 7 12 15 14 14 14 12 5 5 15 12 8 16 23 24 12 4 5 5 4 7 7 5 6 8 10 8 7 6 5 7
1 5 4 5 1 9 6 5 9 8 8 11 7 6 10 12 6 0 8 4 6 8 4 7 2 6 6 8 9 8 8 8 8 1 3 7 1 1 1 7 9 9 7 3 6 4 3 4 14 17 18 20 16 10 9 17 15 18 18 14 15 14 16 17 15 20 18 4 15 19 19 15 27 14 7 8 9 7 6 7 10 8 7 9 8 5 6 7
7 4 3 1 3 4 9 11 8 10 6 15 6 6 9 12 10 6 2 10 2 5 6 0 5 9 11 17 14 10 8 10 8 10 7 3 1 1 1 0 5 9 9 2 1 6 7 11 11 12 17 19 19 8 12 10 14 15 17 16 18 19 15 19 24 28 14 14 22 24 11 17 24 22 12 13 11 10 12 13 13 8 4 4 3 5 8 10
3 2 1 1 2 3 2 2 2 10 12 12 5 10 7 11 14 12 6 3 5 2 10 7 12 17 14 8 9 10 9 5 7 8 10 8 9 4 2 0 5 1 5 4 5 3 3 7 5 5 11 13 15 9 4 8 3 2 10 17 19 21 24 28 28 26 20 15 19 22 13 18 25 19 11 13 10 11 10 7 1 3 8 8 7 8 9 8
5 6 3 1 0 2 0 0 1 3 5 11 9 11 10 14 14 9 5 6 4 9 8 14 17 13 13 13 11 9 10 14 10 9 5 9 5 4 7 7 4 2 2 3 3 3 5 10 9 3 1 7 13 8 4 8 5 5 4 7 13 20 26 28 24 18 16 18 22 23 18 19 19 7 8 7 9 8 5 5 10 11 8 10 11 9 8 8
1 1 1 1 1 2 1 3 2 3 2 3 8 8 10 13 16 14 11 12 16 9 10 18 20 14 8 10 14 16 14 11 10 9 2 6 12 6 9 6 6 6 8 4 2 1 3 4 3 3 6 11 15 13 11 2 4 6 9 11 18 22 19 14 15 18 17 22 23 15 15 23 13 11 6 10 10 13 15 14 11 11 13 14 12 10 10 10
4 1 2 1 4 3 5 1 1 1 7 5 6 3 3 9 7 6 4 4 8 11 11 17 17 12 9 11 13 16 18 14 9 4 3 3 3 5 4 2 6 9 7 7 1 5 6 5 5 5 11 14 19 10 8 6 1 7 15 26 28 18 13 11 17 20 21 20 16 16 23 26 9 6 8 8 10 11 12 12 13 14 14 12 12 11 11 11
Wind_Direction
176 152 127 164 125 96 73 58 43 34 38 31 25 18 20 11 4 7 359 352 347 347 337 335 339 334 333 334 335 338 339 101 49 34 74 237 293 293 293 293 297 300 107 75 37 99 336 15 12 340 34 56 316 54 296 53 37 54 73 114 138 202 154 200 177 186 207 125 212 185 201 117 179 165 184 113 46 48 347 248 298 293 249 224 248 277 264 271
144 148 166 151 106 67 56 49 41 38 31 30 21 14 11 9 2 353 350 345 341 341 338 334 336 338 331 333 339 338 21 83 82 68 78 326 314 308 302 288 300 314 167 40 80 94 88 343 3 38 60 50 322 15 351 355 66 82 127 88 206 177 236 167 191 187 117 238 160 173 122 148 206 146 199 114 262 12 195 265 4 302 288 282 274 319 168 165
146 161 154 139 96 77 61 53 40 35 32 18 14 14 3 357 356 349 341 341 339 335 338 335 337 336 336 332 335 347 319 43 76 20 274 341 324 315 308 291 325 10 73 147 189 123 117 169 182 91 9 96 5 259 37 339 41 193 116 177 254 205 228 210 178 185 228 138 128 142 183 149 206 149 139 210 164 64 211 217 273 260 250 229 240 8 162 171
161 161 150 141 119 102 57 43 32 15 11 24 18 15 9 358 356 349 341 338 338 335 333 339 337 335 333 331 341 323 72 68 62 269 286 319 329 317 302 310 358 78 78 58 134 103 107 84 63 88 62 66 314 42 53 321 48 216 71 161 222 175 105 223 186 226 200 145 151 133 112 124 233 206 163 169 124 252 254 230 192 212 227 224 204 177 172 185
164 165 159 147 141 98 71 30 45 20 357 16 24 11 4 360 355 346 343 338 337 333 335 334 338 333 328 334 344 260 68 68 223 258 279 323 322 308 306 339 36 65 99 145 84 54 69 74 78 39 73 108 7 20 53 330 94 96 56 202 164 143 53 250 202 182 157 242 110 115 132 212 93 87 127 152 187 232 210 235 212 226 216 183 190 188 180 192
169 158 152 156 138 123 94 37 28 9 2 21 15 11 358 1 358 349 340 338 337 333 333 336 335 331 327 335 58 77 80 107 215 2 327 324 302 304 341 63 83 93 82 49 97 33 79 359 64 28 18 65 340 94 308 164 328 91 331 256 203 215 116 297 222 203 139 125 123 137 205 86 138 207 185 185 215 230 219 200 222 238 219 222 125 146 181 194
161 158 155 154 147 148 93 49 40 354 12 20 12 5 5 1 354 351 345 338 338 333 334 335 334 330 326 333 59 83 95 285 34 267 348 325 314 312 45 53 53 57 66 70 17 74 29 72 74 161 92 73 286 98 113 306 28 104 160 25 237 179 315 204 268 140 129 125 179 195 53 146 126 234 120 218 242 232 216 240 241 246 249 186 156 184 188 194
149 164 162 156 152 116 144 43 50 340 349 352 1 3 3 357 358 348 347 340 335 335 333 334 336 331 341 59 79 12 41 251 257 296 330 326 8 324 150 61 73 64 60 68 88 107 120 50 128 164 58 129 194 119 326 98 32 83 92 215 236 108 261 316 137 100 91 71 20 94 124 234 189 202 38 248 244 243 253 58 247 136 146 166 180 189 197 197
157 172 166 151 150 152 149 156 92 336 311 337 339 345 1 357 351 346 343 340 336 331 331 334 336 335 323 81 107 95 273 240 210 300 342 0 352 30 122 249 19 85 127 68 9 154 127 243 109 196 211 110 192 107 341 138 331 119 154 130 65 119 327 188 69 45 42 51 123 107 288 292 257 296 255 246 245 245 150 78 80 123 146 183 198 197 192 195
172 170 162 145 163 168 187 195 232 298 352 331 331 342 344 353 344 345 342 342 333 331 330 334 341 333 15 85 49 88 254 344 290 299 333 322 35 51 46 75 65 90 69 344 34 54 80 199 152 167 123 73 106 71 255 68 195 122 137 136 128 304 313 28 158 332 259 187 186 183 288 262 322 94 280 21 333 115 101 101 7 163 192 203 205 205 211 198
179 175 174 179 179 180 174 196 223 271 325 337 320 325 342 345 339 341 343 335 335 327 332 337 342 337 49 79 104 181 168 70 254 334 324 103 66 56 12 336 108 73 104 44 69 147 89 130 146 127 37 203 117 342 78 200 146 51 139 135 42 345 75 355 37 340 303 227 197 155 195 285 314 86 245 197 344 350 169 214 227 207 222 218 220 214 214 220
176 179 183 181 179 183 174 173 204 239 313 310 315 328 332 335 333 333 338 333 323 328 331 338 348 46 74 67 123 179 162 233 339 2 45 87 71 98 212 302 182 148 118 109 32 262 173 146 107 63 174 154 48 91 65 184 76 229 191 173 310 2 27 359 293 315 354 263 153 155 14 277 152 227 243 327 285 56 183 226 246 238 241 241 240 236 227 221
178 181 186 181 180 186 172 190 202 227 252 317 338 337 330 325 324 328 327 338 315 322 328 344 350 45 97 51 237 238 267 261 150 67 63 70 108 87 88 56 78 100 141 122 116 167 122 124 108 81 339 94 146 86 169 76 340 119 36 83 1 4 341 345 302 350 124 267 79 339 274 248 236 239 241 353 123 61 270 260 240 245 249 247 244 241 249 241
183 185 188 186 188 185 184 203 212 218 268 311 329 339 334 320 316 316 323 314 326 312 326 339 57 63 85 215 280 241 256 155 107 76 32 296 71 22 25 22 61 60 37 94 106 145 88 92 92 114 118 85 131 293 50 343 16 136 272 65 78 13 281 301 89 320 158 306 325 53 237 267 282 272 273 306 196 171 242 245 245 246 251 247 244 248 243 246
183 189 191 191 175 163 196 208 215 242 260 285 319 325 322 316 312 308 310 317 309 329 329 25 19 39 56 265 305 292 185 126 65 330 310 102 113 60 22 21 48 40 71 101 122 94 117 69 67 40 47 282 49 72 14 27 8 24 55 300 324 137 277 297 269 174 173 349 51 125 274 260 264 268 298 315 158 175 238 258 258 253 248 247 247 246 246 246
184 190 192 191 180 187 195 206 224 236 253 272 296 312 309 310 311 310 306 295 322 13 323 98 359 103 105 23 190 90 56 116 178 281 302 114 101 125 163 105 97 34 37 24 59 94 50 79 71 163 168 23 59 96 62 41 342 357 62 258 251 56 266 333 29 280 326 91 345 184 246 346 300 283 320 352 153 168 247 268 264 256 253 249 243 241 250 258
185 189 191 182 184 189 184 198 212 235 248 271 298 306 308 305 320 315 312 1 349 295 86 200 107 131 134 254 99 303 227 254 320 14 349 9 122 148 98 45 27 49 23 98 29 65 360 62 276 24 35 101 138 96 77 8 329 309 13 191 204 189 269 266 314 168 341 101 210 271 230 247 252 277 273 319 164 160 230 256 258 252 250 244 249 246 246 243
185 186 187 185 189 191 196 197 205 225 247 279 301 307 300 306 335 352 74 35 334 92 79 101 118 60 294 345 183 235 14 313 36 186 51 319 107 76 94 94 39 74 40 36 5 66 338 56 30 163 22 0 59 71 120 224 196 202 135 8 293 297 214 254 310 237 107 17 203 305 251 266 269 276 280 248 187 186 231 237 252 259 253 250 239 246 244 244
183 182 185 184 186 188 189 211 216 228 261 306 311 304 278 299 37 114 64 360 86 13 62 205 149 151 204 229 348 25 272 256 196 49 154 93 28 98 66 72 76 105 33 73 268 91 348 78 37 45 195 163 203 161 184 204 146 169 168 170 153 174 232 210 236 277 183 192 236 227 235 254 261 271 278 270 178 203 244 263 271 261 253 248 243 244 245 242
180 179 184 185 184 181 188 199 209 231 328 16 356 28 34 40 8 9 341 15 202 174 163 223 74 157 84 20 122 278 279 13 128 326 303 290 120 70 40 64 30 61 105 181 324 61 36 110 173 193 219 203 197 189 165 160 123 100 90 107 171 194 280 275 264 261 235 331 235 236 241 252 268 267 268 271 138 245 258 260 257 255 249 239 240 241 243 241
181 178 181 183 182 180 183 195 202 216 108 81 344 87 159 172 111 293 245 256 180 164 83 114 178 149 132 158 267 173 131 349 66 15 200 88 285 110 253 47 34 107 357 188 135 317 60 106 240 224 214 173 189 125 109 84 58 129 114 132 262 165 257 234 188 24 297 175 295 278 254 261 259 270 267 270 198 251 238 246 252 254 248 243 238 244 241 243
182 178 176 179 176 176 180 188 192 181 112 129 58 142 124 202 151 184 121 315 278 210 120 124 131 11 349 213 257 151 65 83 34 40 297 137 165 149 266 107 145 178 177 112 41 40 93 189 235 215 118 100 89 127 123 143 121 66 168 151 9 265 249 284 302 327 285 123 262 302 280 262 259 257 266 261 250 247 231 225 242 245 254 245 238 241 246 234
180 178 176 171 172 176 176 185 178 149 67 132 131 119 199 228 294 258 93 119 255 331 164 152 215 252 273 300 269 133 126 163 190 241 224 91 66 171 140 115 134 120 98 171 160 148 255 278 249 146 140 106 49 92 103 81 80 125 103 121 221 233 29 302 296 7 109 184 272 309 294 274 250 252 252 252 244 260 249 242 246 243 251 250 242 235 239 235
183 177 173 171 166 172 177 175 156 126 212 207 147 207 232 113 123 78 81 263 282 297 189 223 174 163 191 150 206 124 148 233 110 206 263 127 150 174 112 143 114 120 183 189 178 176 196 211 328 148 149 144 133 122 121 135 214 271 180 183 206 195 233 187 256 301 257 5 55 311 275 277 218 238 259 276 317 246 259 258 256 253 240 248 265 273 230 234
181 178 171 167 167 164 170 140 131 214 130 257 271 225 190 158 104 61 78 352 8 300 235 325 159 223 204 41 108 156 235 45 226 213 170 133 146 107 206 176 107 198 174 184 110 266 281 252 108 92 108 95 112 149 190 143 212 295 230 198 211 209 222 291 352 13 1 334 355 51 323 300 309 250 249 276 323 291 261 249 254 253 252 248 251 250 246 235
180 175 171 166 165 154 138 152 220 135 158 205 217 226 181 169 102 48 93 78 279 263 20 233 150 255 134 185 103 153 84 247 222 212 136 208 136 135 84 89 115 208 178 139 180 200 203 132 147 159 142 125 116 151 230 159 179 64 273 203 220 192 156 173 293 56 302 245 301 35 298 287 255 231 253 267 272 265 281 266 263 261 260 251 244 253 240 227
178 174 170 165 161 139 124 237 141 121 119 266 227 181 170 154 160 328 92 1 308 196 165 259 107 237 42 199 146 101 163 253 43 67 123 300 166 339 134 188 40 18 145 159 33 261 116 141 87 85 97 123 128 187 236 168 125 240 252 138 137 147 186 211 155 180 238 274 285 93 128 287 290 237 239 256 257 268 297 281 273 263 257 250 245 249 244 229
180 174 169 168 158 158 160 123 130 161 210 211 208 130 130 143 110 59 81 40 275 100 121 232 221 351 83 185 163 154 216 151 105 232 9 284 89 9 101 192 170 179 183 109 208 286 156 186 171 161 158 131 193 208 181 161 142 221 195 134 141 159 168 126 121 158 282 23 289 46 303 233 260 269 313 258 248 265 261 261 268 270 266 263 260 255 255 247
182 176 171 167 163 163 117 141 154 198 212 203 112 124 112 105 87 104 122 182 247 79 270 89 277 49 6 94 128 76 106 356 148 323 307 45 30 148 153 211 163 157 207 181 215 251 319 170 209 171 150 209 202 305 173 166 168 223 127 90 83 80 68 106 102 102 314 47 270 161 193 174 277 184 185 347 239 259 250 249 256 262 270 275 270 282 294 295
184 179 172 166 160 148 91 92 193 180 110 106 121 125 117 94 95 103 62 243 98 231 89 175 142 199 138 151 197 12 108 344 62 82 35 153 318 38 17 152 113 104 209 352 66 215 237 298 192 126 197 190 120 46 91 31 100 131 109 78 37 44 44 32 65 82 44 268 260 189 200 160 278 188 188 166 208 197 229 264 276 276 279 273 267 270 288 285
188 181 176 164 174 169 128 193 192 130 132 127 137 133 122 37 124 116 207 225 38 117 48 159 172 86 142 146 179 309 78 38 141 152 121 34 8 47 143 38 52 58 43 345 281 351 31 12 149 256 82 111 96 77 21 82 119 122 101 126 75 356 10 35 340 38 142 268 255 305 207 198 217 289 273 245 281 241 213 225 251 268 269 276 295 293 288 258
196 184 171 175 162 145 174 200 162 140 144 145 144 150 137 86 349 176 231 69 294 205 167 193 46 150 165 102 105 173 155 41 184 174 156 176 159 159 203 174 152 120 289 213 252 31 263 213 234 347 210 127 111 85 13 28 348 82 95 89 118 244 34 296 22 263 197 229 176 338 147 314 241 244 257 277 263 257 210 225 237 251 272 268 253 281 280 244
220 186 177 181 157 186 194 115 140 145 135 150 130 37 132 113 210 217 243 176 243 127 237 86 173 156 164 133 191 153 31 161 220 182 98 70 151 226 294 175 210 132 204 208 171 58 267 329 219 201 80 232 145 139 155 105 217 135 156 147 103 170 219 266 274 266 309 292 274 284 147 250 307 271 226 244 246 236 231 230 239 242 252 266 250 272 268 228
262 201 185 186 183 178 157 148 139 137 144 147 128 62 51 173 224 201 218 223 200 341 68 90 97 54 153 166 207 158 165 246 154 197 144 160 160 202 240 246 176 254 87 101 173 184 241 299 242 139 243 180 188 200 179 157 164 202 101 158 182 144 157 206 197 223 240 235 264 272 60 233 120 242 237 232 255 291 248 248 242 249 260 266 276 252 255 249
107 45 206 185 179 165 156 160 159 152 146 140 128 173 171 207 215 209 220 209 235 46 39 355 119 110 210 349 313 211 120 195 184 120 175 144 202 205 187 205 219 130 168 148 250 80 215 235 266 220 322 156 187 217 110 96 68 202 159 72 99 222 133 234 211 167 289 336 330 201 213 192 193 266 284 239 272 272 267 262 265 270 259 251 277 250 240 235
92 240 151 179 186 169 155 156 149 145 146 147 147 188 209 192 207 194 224 132 92 121 143 49 69 122 206 203 333 196 327 113 211 111 242 215 253 199 211 204 195 190 157 191 156 176 47 268 294 322 43 177 177 102 168 144 201 207 109 203 213 145 112 83 47 63 62 50 259 133 281 276 300 270 236 248 242 261 281 284 271 250 258 328 277 275 230 230
159 139 193 183 196 156 163 156 150 159 180 169 169 195 205 231 230 95 181 166 179 130 145 144 229 161 178 213 179 195 227 77 184 152 222 141 297 213 209 235 177 191 212 154 284 192 149 237 318 81 210 303 115 230 102 24 141 97 186 231 148 127 111 138 220 360 73 209 270 97 249 291 52 285 8 338 241 250 244 253 243 249 287 276 261 268 261 243
184 197 248 209 179 157 163 159 154 162 172 185 201 206 86 235 189 128 72 100 84 153 164 195 238 143 207 163 211 179 230 170 188 178 209 180 240 191 178 193 203 195 205 197 178 257 137 268 306 335 286 295 356 112 50 1 31 145 195 202 124 224 225 291 90 258 249 253 275 297 270 259 184 254 151 251 207 246 237 236 240 257 254 244 256 264 272 260
266 213 240 212 157 160 162 163 165 164 174 186 200 226 224 234 92 9 206 185 170 157 199 207 186 224 154 188 160 158 161 184 171 194 147 217 219 190 187 171 219 203 192 177 195 213 80 183 287 322 144 298 31 123 199 182 357 44 72 120 114 99 160 136 196 177 126 264 39 288 42 276 171 226 181 209 204 213 215 224 228 232 242 237 230 244 251 257
221 241 246 179 161 156 156 162 177 182 172 190 189 225 109 216 224 262 255 155 224 167 217 194 194 149 183 204 156 160 226 196 165 195 193 208 205 286 186 192 163 158 173 186 191 121 199 154 248 314 312 101 183 198 205 163 169 151 134 201 162 3 249 109 14 138 177 180 187 280 301 266 251 189 175 202 202 207 190 204 224 212 212 221 228 223 238 239
203 262 283 147 152 146 145 169 191 191 185 260 219 215 174 202 182 219 237 110 325 343 178 192 169 202 170 144 253 215 170 180 186 188 198 226 188 244 200 171 140 137 130 165 205 190 131 155 204 158 296 222 241 251 208 189 186 177 180 193 184 145 159 153 250 46 113 135 240 168 256 275 248 205 183 204 219 202 202 183 228 257 215 204 213 236 233 246
197 232 228 157 150 147 155 187 199 188 188 185 201 194 208 172 34 223 209 193 208 290 358 230 259 197 156 199 179 180 148 184 191 193 230 210 216 216 277 171 159 146 143 176 197 202 170 162 105 193 211 205 209 46 266 272 3 193 181 232 166 189 134 142 191 235 13 252 80 176 83 272 224 181 198 203 221 207 281 203 194 227 236 240 236 236 250 236
212 236 356 164 167 157 165 207 182 204 195 229 43 69 251 231 206 167 184 198 214 182 237 227 203 190 239 175 175 162 172 200 179 202 202 222 237 207 208 173 149 160 147 53 39 340 117 136 187 266 347 317 321 314 37 48 91 332 332 102 144 188 194 190 198 179 168 151 199 248 191 258 46 348 231 225 244 259 202 250 219 228 227 222 226 248 251 258
251 249 301 123 182 179 174 200 194 198 217 270 219 249 197 226 173 190 207 191 192 176 214 208 318 230 258 159 143 187 181 211 215 204 232 214 253 225 149 170 160 171 161 198 169 179 143 238 194 172 339 332 342 344 286 4 51 206 173 209 200 201 183 83 85 65 175 198 202 162 228 262 227 296 322 321 306 277 243 241 207 244 257 223 211 235 248 256
274 295 226 220 204 203 203 182 191 181 203 207 169 216 209 231 213 221 200 203 204 224 191 237 219 142 220 129 202 185 196 206 185 221 215 193 232 59 280 169 188 185 217 201 180 164 166 157 157 197 215 224 225 209 213 200 197 206 247 207 201 166 179 138 209 194 212 233 193 209 246 251 36 333 268 288 318 293 265 252 244 226 249 256 230 219 224 223
188 236 169 221 210 250 236 224 179 173 192 197 201 226 206 223 237 203 183 232 194 216 217 50 290 190 231 150 201 204 220 235 224 188 192 228 232 251 205 183 188 198 210 136 156 158 173 181 191 192 206 223 232 240 40 117 95 180 218 189 197 200 193 197 185 165 215 223 174 219 224 252 257 240 229 236 252 234 233 254 248 238 248 253 252 240 220 213
307 214 166 201 103 254 254 212 206 176 199 170 214 157 202 214 210 3 179 227 198 208 214 210 186 186 204 218 226 231 213 221 239 22 237 211 225 195 55 180 208 223 153 136 144 83 76 190 207 210 212 226 236 225 192 155 181 205 201 201 199 189 191 190 195 219 213 107 244 234 227 242 256 236 212 221 229 246 264 258 256 255 244 228 230 213 227 232
220 237 239 249 214 201 215 238 213 212 199 169 199 162 195 202 206 213 185 225 191 196 209 8 209 217 202 207 208 221 202 220 200 219 217 249 129 280 70 103 196 213 192 201 219 176 170 214 217 212 230 232 236 215 175 186 191 192 198 192 190 196 191 198 216 224 194 198 227 243 199 223 250 248 202 213 204 209 219 225 223 231 256 229 179 199 218 218
248 8 252 269 175 271 234 43 182 221 211 171 186 172 181 192 207 202 187 158 203 207 192 228 220 221 220 216 204 217 203 196 229 218 212 207 198 135 184 351 264 167 186 164 176 180 145 253 224 211 236 251 254 238 178 202 241 223 206 199 195 191 199 205 216 220 213 221 238 249 236 223 237 249 191 215 197 211 225 227 258 230 233 232 223 226 236 238
187 208 236 98 300 297 139 16 100 45 256 187 189 201 200 195 208 194 200 169 178 216 191 220 231 221 219 223 222 223 209 211 202 212 217 215 234 191 208 191 154 10 49 157 152 293 163 225 197 104 214 259 258 258 164 209 226 244 245 227 214 208 208 209 216 224 225 239 240 241 252 264 254 124 201 193 199 221 238 226 230 239 249 247 247 247 245 243
6 87 61 95 255 226 200 181 188 225 218 252 234 206 202 201 214 191 201 194 196 186 180 211 229 230 222 222 227 237 239 236 233 222 203 196 224 213 196 261 156 146 151 153 162 252 150 283 50 103 238 255 255 245 239 175 202 243 252 232 222 218 217 213 218 218 208 220 231 246 256 251 256 142 177 179 191 208 223 232 236 245 244 247 246 242 238 239
229 208 99 62 269 196 218 203 191 173 227 179 182 241 210 214 224 166 249 239 225 213 186 204 222 220 227 224 228 229 235 239 253 263 216 188 279 339 270 259 139 147 170 181 92 143 175 184 176 164 220 239 247 217 211 159 157 262 249 240 229 216 207 215 226 225 217 212 219 221 234 242 216 182 161 205 186 207 218 221 233 241 240 232 230 231 233 237